Home > Weather > Koblenz > Past weeks

Flag for Germany Past Weather in Koblenz, Rhineland-Palatinate, Germany — Yesterday and Last 2 Weeks

Now
52 °F

Cool.


Feels Like: 48 °F
Forecast: 49 / 67 °F
Wind: 12 mph from South

Location: Buechel

Current Time: May 31, 2016 at 4:05:38 AM

Latest Report: May 31, 2016 at 3:20 AM


Visibility: 4 mi

Pressure: 29.68 "Hg

Humidity: 100%

Dew Point: 52 °F

Location of KoblenzLocation

Past Weather in Koblenz — Graph

°F

Koblenz Temperature Yesterday

Maximum temperature yesterday: 61 °F (at 11:55 AM)
Minimum temperature yesterday: 54 °F (at 11:20 PM)
Average temperature yesterday: 58 °F

High & Low Weather Summary for the Past Weeks

 TemperatureHumidityPressure
High68 °F (May 21, 5:20 PM)100% (May 19, 3:20 AM)30.12 "Hg (May 19, 3:20 AM)
Low39 °F (May 16, 2:20 AM)46% (May 26, 3:20 PM)29.59 "Hg (May 30, 5:20 AM)
Average53 °F80%29.94 "Hg
* Reported May 16 2:20 AM — May 31 2:20 AM, Koblenz, Weather by CustomWeather, © 2016

Note: Actual official high and low records may vary slightly from our data, if they occured in-between our weather recording intervals... More about our weather records

Advertising

Koblenz Weather History for the Previous 24 Hours

Scroll right to see more
 ConditionsComfort  
Time TempWeatherWind HumidityBarometerVisibility
2:20 AM
Tue, May 31
54 °FCool.9 mph94%29.68 "Hg2 mi
1:20 AM54 °FCool.10 mph94%29.68 "HgN/A
12:20 AM54 °FCool.9 mph94%29.68 "HgN/A
11:20 PM
Mon, May 30
54 °FCool.9 mph100%29.68 "Hg3 mi
10:20 PM55 °FCool.9 mph94%29.65 "Hg1 mi
9:20 PM55 °FCool.12 mph100%29.65 "Hg2 mi
8:20 PM57 °FCool.12 mph94%29.65 "HgN/A
7:20 PM57 °FCool.13 mph94%29.62 "HgN/A
6:20 PM59 °FCool.9 mph94%29.59 "HgN/A
5:20 PM59 °FPartly sunny.6 mph94%29.59 "Hg4 mi
4:49 PM57 °FThunderstorms. Fog.3 mph100%29.62 "Hg3 mi
4:20 PM59 °FRain showers. Partly sunny.7 mph94%29.59 "Hg4 mi
3:20 PM61 °FBroken clouds.7 mph94%29.59 "HgN/A
2:20 PM61 °FBroken clouds.10 mph94%29.59 "HgN/A
1:20 PM61 °FSprinkles. Broken clouds.8 mph94%29.59 "HgN/A
12:58 PM59 °FLots of rain. Broken clouds.6 mph100%29.59 "Hg1 mi
12:20 PM59 °FRain showers. Fog.8 mph94%29.59 "Hg1 mi
11:55 AM61 °FBroken clouds.7 mph94%29.59 "HgN/A
11:20 AM59 °FSprinkles. Broken clouds.9 mph94%29.59 "Hg3 mi
11:00 AM59 °FBroken clouds.9 mph94%29.59 "Hg4 mi
10:20 AM59 °FBroken clouds.10 mph94%29.59 "HgN/A
9:20 AM59 °FPartly sunny.9 mph94%29.59 "Hg5 mi
8:20 AM57 °FLight rain. Partly sunny.12 mph94%29.59 "Hg4 mi
7:20 AM55 °FLight rain. Broken clouds.12 mph100%29.59 "Hg4 mi
6:20 AM55 °FLight rain. Passing clouds.8 mph100%29.59 "Hg4 mi
5:20 AM55 °FRain. Low clouds.6 mph100%29.59 "Hg4 mi
Weather by CustomWeather, © 2016

See weather overviewHow to use our weather pages